Location: Aldenham
(51.6667°N, 0.3500°W)
Time: 17:43:50
(UTC+00:00)

Explorer 7 - Pass Details

Date: 20 February 2026
Orbit: 430 x 542 km, 50.2° (Epoch: 8 March)

Event Time Altitude Azimuth Distance (km) Brightness Sun altitude
Rises 18:51:53 0° 280° (W) 2,506 12.0 -14.1°
Reaches altitude 10° 18:54:05 10° 272° (W) 1,647 10.7 -14.4°
Maximum altitude 18:57:34 38° 203° (SSW) 757 7.7 -15.0°
Enters shadow 19:00:04 17° 142° (SE) 1,305 8.4 -15.3°
Drops below altitude 10° 19:01:10 10° 135° (SE) 1,708 - -15.5°
Sets 19:03:30 0° 127° (SE) 2,612 - -15.9°
